EW7554 Weather Reports


time (UTC)temp
C
wind
direction
speed
KPH
gust
KPH
rain 1hr
cm
rain 24hr
cm
rain mn
cm
humidity
%
barometer
mb
20260504050113 13 188 6.4 11.3 0.00 0.00 0.00 45 1002.0
20260504044553 14 173 6.4 11.3 0.00 0.00 0.00 43 1002.3
20260504043106 14 189 8.0 12.9 0.00 0.00 0.00 42 1002.5
20260504041549 15 186 6.4 12.9 0.00 0.00 0.00 41 1002.8
20260504040047 15 199 3.2 8.0 0.00 0.00 0.00 40 1003.2
20260504034544 15 195 3.2 8.0 0.00 0.00 0.00 38 1003.5
20260504033043 15 192 4.8 8.0 0.00 0.00 0.00 37 1003.7
20260504031540 15 199 4.8 8.0 0.00 0.00 0.00 38 1003.9
20260504030043 16 186 3.2 6.4 0.00 0.00 0.00 37 1003.9
20260504024540 16 227 3.2 6.4 0.00 0.00 0.00 34 1004.0
20260504023038 16 233 1.6 4.8 0.00 0.00 0.00 33 1004.2
20260504021537 17 233 1.6 4.8 0.00 0.00 0.00 32 1004.2
20260504020037 17 234 1.6 6.4 0.00 0.00 0.00 31 1004.2
20260504014549 17 232 1.6 6.4 0.00 0.00 0.00 30 1004.2
20260504013040 18 269 1.6 8.0 0.00 0.00 0.00 28 1004.4
20260504011533 19 234 3.2 9.7 0.00 0.00 0.00 27 1004.4
20260504010033 20 268 4.8 12.9 0.00 0.00 0.00 26 1004.5
20260504004532 20 259 6.4 16.1 0.00 0.00 0.00 26 1004.5
20260504003031 21 200 4.8 20.9 0.00 0.00 0.00 25 1004.5
20260504001529 21 279 4.8 17.7 0.00 0.00 0.00 25 1004.6
20260504000040 20 295 8.0 17.7 0.00 0.00 0.00 24 1004.7
20260503234529 21 251 3.2 14.5 0.00 0.00 0.00 25 1004.6
20260503233028 21 265 9.7 22.5 0.00 0.00 0.00 24 1004.7
20260503231526 22 255 6.4 16.1 0.00 0.00 0.00 23 1005.0
20260503230026 21 326 4.8 19.3 0.00 0.00 0.00 24 1005.1
20260503224531 21 248 9.7 29.0 0.00 0.00 0.00 23 1005.2
20260503223024 21 316 9.7 24.1 0.00 0.00 0.00 24 1005.3
20260503221523 21 342 8.0 29.0 0.00 0.00 0.00 24 1005.3
20260503220026 21 312 6.4 25.7 0.00 0.00 0.00 24 1005.4
20260503214530 21 323 14.5 24.1 0.00 0.00 0.00 24 1005.5
20260503213025 21 284 11.3 22.5 0.00 0.00 0.00 24 1005.6
20260503211522 21 299 17.7 32.2 0.00 0.00 0.00 25 1005.8
20260503210038 20 260 14.5 25.7 0.00 0.00 0.00 26 1005.8
20260503204519 21 203 9.7 22.5 0.00 0.00 0.00 26 1006.0
20260503203019 21 350 4.8 20.9 0.00 0.00 0.00 28 1006.0
20260503201521 21 297 16.1 24.1 0.00 0.00 0.00 28 1006.2
20260503200018 21 298 11.3 27.4 0.00 0.00 0.00 29 1006.3
20260503194515 21 250 9.7 27.4 0.00 0.00 0.00 27 1006.6
20260503193014 20 332 11.3 30.6 0.00 0.00 0.00 27 1006.6
20260503191513 20 313 16.1 29.0 0.00 0.00 0.00 27 1006.7
20260503190015 20 314 9.7 30.6 0.00 0.00 0.00 30 1006.6
20260503184513 20 313 12.9 22.5 0.00 0.00 0.00 29 1006.7
20260503183009 20 296 11.3 27.4 0.00 0.00 0.00 30 1006.9
20260503181507 20 271 8.0 32.2 0.00 0.00 0.00 35 1006.9
20260503180007 20 293 8.0 22.5 0.00 0.00 0.00 35 1007.1
20260503174504 19 314 14.5 27.4 0.00 0.00 0.00 35 1007.1
20260503173003 19 343 9.7 25.7 0.00 0.00 0.00 34 1007.2
20260503171600 19 282 12.9 33.8 0.00 0.00 0.00 39 1007.2
20260503081512 15 192 6.4 20.9 0.00 0.00 0.00 42 1006.1
20260503071505 15 225 17.7 30.6 0.00 0.00 0.00 45 1006.7